EN

Hourly Weather Amatitan

Today, 15 January, Friday

Time Temperature Precipitation Wind Pressure Humidity
00:00 +13°C° 0 mm 0 mps 655 mmHg 38%
01:00 +13°C° 0 mm 0 mps 654 mmHg 40%
02:00 +12°C° 0 mm 0 mps 654 mmHg 42%
03:00 +12°C° 0 mm 0 mps 654 mmHg 42%
04:00 +12°C° 0 mm 0 mps 654 mmHg 42%
05:00 +12°C° 0 mm 0 mps 654 mmHg 42%
06:00 +13°C° 0 mm 0 mps 655 mmHg 38%
07:00 +14°C° 0 mm 0 mps 656 mmHg 35%
08:00 +18°C° 0 mm 1 mps 656 mmHg 32%
09:00 +21°C° 0 mm 1 mps 657 mmHg 27%
10:00 +25°C° 0 mm 1 mps 658 mmHg 21%
11:00 +28°C° 0 mm 1 mps 659 mmHg 16%
12:00 +29°C° 0 mm 1 mps 658 mmHg 14%
13:00 +28°C° 0 mm 0 mps 657 mmHg 13%
14:00 +29°C° 0 mm 0 mps 657 mmHg 12%
15:00 +30°C° 0 mm 1 mps 656 mmHg 15%
16:00 +28°C° 0 mm 1 mps 656 mmHg 17%
17:00 +26°C° 0 mm 1 mps 655 mmHg 20%
18:00 +24°C° 0 mm 1 mps 655 mmHg 22%
19:00 +21°C° 0 mm 1 mps 655 mmHg 24%
20:00 +19°C° 0 mm 1 mps 655 mmHg 27%
21:00 +16°C° 0 mm 0 mps 655 mmHg 29%
22:00 +15°C° 0 mm 0 mps 655 mmHg 32%
23:00 +15°C° 0 mm 0 mps 655 mmHg 34%

Tomorrow, 16 January, Saturday

Time Temperature Precipitation Wind Pressure Humidity
00:00 +14°C° 0 mm 0 mps 655 mmHg 36%
01:00 +14°C° 0 mm 0 mps 654 mmHg 37%
02:00 +13°C° 0 mm 0 mps 654 mmHg 39%
03:00 +13°C° 0 mm 0 mps 654 mmHg 39%
04:00 +13°C° 0 mm 0 mps 654 mmHg 40%
05:00 +13°C° 0 mm 0 mps 654 mmHg 40%
06:00 +14°C° 0 mm 0 mps 654 mmHg 37%
07:00 +15°C° 0 mm 0 mps 655 mmHg 34%
08:00 +17°C° 0 mm 0 mps 656 mmHg 32%
09:00 +20°C° 0 mm 0 mps 657 mmHg 26%
10:00 +24°C° 0 mm 0 mps 658 mmHg 21%
11:00 +27°C° 0 mm 0 mps 659 mmHg 15%
12:00 +30°C° 0 mm 1 mps 658 mmHg 17%
13:00 +30°C° 0 mm 1 mps 657 mmHg 18%
14:00 +30°C° 0 mm 2 mps 656 mmHg 20%
15:00 +29°C° 0 mm 2 mps 656 mmHg 23%
16:00 +28°C° 0 mm 2 mps 656 mmHg 26%
17:00 +26°C° 0 mm 2 mps 655 mmHg 30%
18:00 +24°C° 0 mm 2 mps 655 mmHg 36%
19:00 +21°C° 0 mm 2 mps 655 mmHg 43%
20:00 +20°C° 0 mm 1 mps 655 mmHg 49%
21:00 +19°C° 0 mm 1 mps 655 mmHg 52%
22:00 +18°C° 0 mm 1 mps 655 mmHg 54%
23:00 +16°C° 0 mm 1 mps 655 mmHg 56%

Day after tomorrow, 17 January, Sunday

Time Temperature Precipitation Wind Pressure Humidity
00:00 +15°C° 0 mm 0 mps 655 mmHg 57%
01:00 +14°C° 0 mm 0 mps 654 mmHg 59%
02:00 +14°C° 0 mm 0 mps 654 mmHg 60%
03:00 +13°C° 0 mm 0 mps 654 mmHg 61%
04:00 +13°C° 0 mm 0 mps 654 mmHg 62%
05:00 +12°C° 0 mm 0 mps 654 mmHg 63%
06:00 +14°C° 0 mm 0 mps 655 mmHg 59%
07:00 +15°C° 0 mm 0 mps 656 mmHg 54%
08:00 +17°C° 0 mm 0 mps 656 mmHg 50%
09:00 +20°C° 0 mm 0 mps 657 mmHg 42%
10:00 +24°C° 0 mm 0 mps 658 mmHg 33%
11:00 +27°C° 0 mm 0 mps 659 mmHg 25%
12:00 +28°C° 0 mm 0 mps 658 mmHg 22%
13:00 +30°C° 0 mm 1 mps 657 mmHg 18%
14:00 +31°C° 0 mm 1 mps 656 mmHg 14%
15:00 +29°C° 0 mm 1 mps 656 mmHg 16%
16:00 +26°C° 0 mm 0 mps 655 mmHg 18%
17:00 +24°C° 0 mm 0 mps 655 mmHg 19%
18:00 +22°C° 0 mm 0 mps 655 mmHg 22%
19:00 +19°C° 0 mm 0 mps 655 mmHg 25%
20:00 +17°C° 0 mm 0 mps 655 mmHg 28%
21:00 +16°C° 0 mm 0 mps 655 mmHg 33%
22:00 +16°C° 0 mm 1 mps 654 mmHg 38%
23:00 +15°C° 0 mm 1 mps 654 mmHg 43%

18 January, Monday

Time Temperature Precipitation Wind Pressure Humidity
00:00 +13°C° 0 mm 0 mps 654 mmHg 46%
01:00 +13°C° 0 mm 0 mps 653 mmHg 49%
02:00 +12°C° 0 mm 0 mps 653 mmHg 52%
03:00 +12°C° 0 mm 0 mps 653 mmHg 52%
04:00 +12°C° 0 mm 0 mps 653 mmHg 53%
05:00 +12°C° 0 mm 1 mps 653 mmHg 53%
06:00 +14°C° 0 mm 1 mps 654 mmHg 48%
07:00 +16°C° 0 mm 1 mps 655 mmHg 43%
08:00 +19°C° 0 mm 1 mps 656 mmHg 38%
09:00 +22°C° 0 mm 1 mps 656 mmHg 33%
10:00 +24°C° 0 mm 0 mps 657 mmHg 27%
11:00 +28°C° 0 mm 0 mps 658 mmHg 22%
12:00 +30°C° 0 mm 1 mps 657 mmHg 21%
13:00 +31°C° 0 mm 1 mps 656 mmHg 20%
14:00 +31°C° 0 mm 2 mps 656 mmHg 19%
15:00 +30°C° 0 mm 2 mps 656 mmHg 21%
16:00 +29°C° 0 mm 3 mps 655 mmHg 22%
17:00 +27°C° 0 mm 3 mps 655 mmHg 23%
18:00 +25°C° 0 mm 3 mps 655 mmHg 31%
19:00 +21°C° 0 mm 2 mps 655 mmHg 39%
20:00 +18°C° 0 mm 2 mps 655 mmHg 47%
21:00 +18°C° 0 mm 1 mps 654 mmHg 51%
22:00 +16°C° 0 mm 1 mps 654 mmHg 55%
23:00 +14°C° 0 mm 0 mps 654 mmHg 59%

19 January, Tuesday

Time Temperature Precipitation Wind Pressure Humidity
00:00 +14°C° 0 mm 0 mps 654 mmHg 61%
01:00 +14°C° 0 mm 0 mps 654 mmHg 63%
02:00 +13°C° 0 mm 0 mps 654 mmHg 66%
03:00 +13°C° 0 mm 0 mps 654 mmHg 68%
04:00 +13°C° 0 mm 0 mps 654 mmHg 70%
05:00 +12°C° 0 mm 0 mps 654 mmHg 72%
06:00 +14°C° 0 mm 0 mps 655 mmHg 66%
07:00 +15°C° 0 mm 0 mps 656 mmHg 61%
08:00 +17°C° 0 mm 0 mps 657 mmHg 56%
09:00 +20°C° 0 mm 0 mps 657 mmHg 47%
10:00 +24°C° 0 mm 0 mps 658 mmHg 39%
11:00 +29°C° 0 mm 1 mps 659 mmHg 31%
12:00 +30°C° 0 mm 1 mps 658 mmHg 29%
13:00 +30°C° 0 mm 1 mps 658 mmHg 27%
14:00 +31°C° 0 mm 1 mps 657 mmHg 25%
15:00 +29°C° 0 mm 1 mps 657 mmHg 28%
16:00 +28°C° 0 mm 1 mps 656 mmHg 31%
17:00 +26°C° 0 mm 1 mps 656 mmHg 34%
18:00 +25°C° 0 mm 1 mps 656 mmHg 38%
19:00 +24°C° 0 mm 1 mps 656 mmHg 42%
20:00 +22°C° 0 mm 1 mps 657 mmHg 45%
21:00 +21°C° 0 mm 1 mps 656 mmHg 50%
22:00 +20°C° 0 mm 1 mps 656 mmHg 55%
23:00 +19°C° 0 mm 1 mps 656 mmHg 60%

20 January, Wednesday

Time Temperature Precipitation Wind Pressure Humidity
00:00 +16°C° 0 mm 0 mps 655 mmHg 63%
01:00 +16°C° 0 mm 0 mps 655 mmHg 65%
02:00 +15°C° 0 mm 0 mps 655 mmHg 68%
03:00 +15°C° 0 mm 0 mps 655 mmHg 70%
04:00 +14°C° 0 mm 0 mps 655 mmHg 73%
05:00 +14°C° 0 mm 0 mps 654 mmHg 75%
06:00 +15°C° 0 mm 0 mps 655 mmHg 68%
07:00 +17°C° 0 mm 0 mps 656 mmHg 62%
08:00 +18°C° 0 mm 0 mps 657 mmHg 55%
09:00 +23°C° 0 mm 1 mps 658 mmHg 47%
10:00 +27°C° 0 mm 1 mps 658 mmHg 38%
11:00 +30°C° 0 mm 1 mps 659 mmHg 30%
12:00 +30°C° 0 mm 1 mps 658 mmHg 28%
13:00 +31°C° 0 mm 1 mps 657 mmHg 26%
14:00 +32°C° 0 mm 1 mps 657 mmHg 25%
15:00 +30°C° 0 mm 1 mps 656 mmHg 27%
16:00 +29°C° 0 mm 1 mps 656 mmHg 30%
17:00 +28°C° 0 mm 1 mps 655 mmHg 33%
18:00 +26°C° 0 mm 1 mps 655 mmHg 38%
19:00 +24°C° 0 mm 1 mps 655 mmHg 43%
20:00 +22°C° 0 mm 1 mps 656 mmHg 48%
21:00 +22°C° 0 mm 1 mps 656 mmHg 49%
22:00 +21°C° 0 mm 1 mps 656 mmHg 51%
23:00 +21°C° 0 mm 1 mps 656 mmHg 53%
Show more